Weather in Chik

Russia / Novosibirsk Oblast     54°59′40″N   82°26′20″E
temp.,
°C
wind,
m/s
gust,
m/s
humid.,
%
clouds,
%
prec.,
mm/h
press.,
hPa
HPBL,
m
27 february, sat
sat2701:00−24sw51193100 0.1 1035575
04:00−25sw4993100 0.1 1035490
07:00−25sw4896100 0.2 1036382
10:00−25sw5893100 0.1 1036477
13:00−23sw4791100 0.1 1037584
16:00−22sw4689100 0.0 1037596
19:00−26sw3495100 0.1 103735
22:00−28sw339762 0.0 103828
28 february, sun
sun2801:00−30ssw349537 0.0 103935
04:00−30ssw349627 0.0 103831
07:00−30s349637 0.0 103836
10:00−28sse359562 0.0 1037115
13:00−23sse479358 0.0 1034272
16:00−18se479194 0.0 1032388
19:00−17se369497 0.0 1028112
22:00−14se4995100 0.2 1025313
1 march, mon
mon101:00−13se51094100 0.5 1022321
04:00−10se61194100 0.3 1018419
07:00−8se61195100 1.8 1013516
10:00−6se61195100 1.6 1010575
13:000ssw61299100 3.8 1008677
16:00+1sw81499100 2.0 1006733
19:000sw61298100 3.1 1005670
22:000wsw71294100 1.3 1006712
2 march, tue
tue201:00−5nw3594100 1.8 1007160
04:00−8wsw3895100 0.4 1010423
07:00−12w2396100 0.8 101347
10:00−14wnw349698 0.1 1015169
13:00−12w458999 0.2 1018520
16:00−12wsw4589100 0.1 1018577
19:00−15sw2395100 0.1 101822
22:00−17sw229492 0.0 101820
3 march, wed
wed301:00−17s119596 0.0 101720
04:00−16e119799 0.2 101621
07:00−16ene1297100 0.4 101520
10:00−15nne1295100 0.3 1015112
13:00−12nw2291100 0.7 1016284
16:00−12w2389100 0.2 1018336
19:00−13wsw129593 0.3 102021
22:00−15wsw349586 0.1 102249